Location: Arpaise
(41.0333°N, 14.7333°E)
Time: 01:21:12
(UTC+00:00)

SL-16 R/B - Pass Details

Date: 05 July 2020
Orbit: 985 x 1007 km, 99.5° (Epoch: 11 August)

Event Time Altitude Azimuth Distance (km) Brightness Sun altitude
Exits shadow 23:31:34 13° 113° (ESE) 2,564 4.5 -26.0°
Maximum altitude 23:35:57 27° 62° (ENE) 1,817 4.2 -25.9°
Drops below altitude 10° 23:41:03 10° 8° (N) 2,785 5.9 -25.8°
Sets 23:43:54 0° 357° (N) 3,741 6.8 -25.7°
